Location: Barcelona
(41.3830°N, 2.1830°E)
Time: 00:05:53
(UTC+02:00)

ISS - Pass Details

Date: 21 May 2019
Orbit: 408 x 418 km, 51.6° (Epoch: 26 May)

Event Time Altitude Azimuth Distance (km) Brightness Sun altitude
Rises 23:27:19 0° 280° (W) 2,348 0.7 -20.3°
Reaches altitude 10° 23:29:52 10° 300° (WNW) 1,489 0.0 -20.6°
Maximum altitude 23:32:16 18° 346° (NNW) 1,100 -0.8 -20.8°
Drops below altitude 10° 23:34:40 10° 32° (NNE) 1,495 -0.7 -21.1°
Sets 23:37:14 0° 52° (NE) 2,362 0.1 -21.3°
